Location: Peterborough
(44.3091°N, 78.3197°W)
Time: 04:41:26
(UTC-04:00)

Tiros 1 despin weight - Pass Details

Date: 28 March 2023
Orbit: 586 x 632 km, 48.2° (Epoch: 08 June)

Event Time Altitude Azimuth Distance (km) Brightness Sun altitude
Rises 22:34:23 0° 266° (W) 2,806 ? -30.0°
Reaches altitude 10° 22:36:42 10° 271° (W) 1,909 ? -30.3°
Enters shadow 22:38:56 28° 283° (WNW) 1,107 ? -30.6°
Maximum altitude 22:41:00 56° 350° (N) 704 - -30.9°
Drops below altitude 10° 22:45:21 10° 69° (ENE) 1,930 - -31.5°
Sets 22:47:41 0° 74° (ENE) 2,840 - -31.8°
